logo tempoitalia

Diretta Meteo Le Luc, Francialunedì 31 agosto ore 07:00

Mappa
Sereno 22 °C Sereno 24 Ore: T.min 19 T.max 33
Ponente Ovest Km/h 13 Punto di rugiada: 13 °C Umidità: 56% Visibilità: 10 Km
Il sole sorge alle: 06:57 Il sole tramonta alle: 20:12
31 Agosto 2026 07:00 tempo osservato: Sereno Sereno 22 56 1015 vento: Nord O 13
31 Agosto 2026 06:30 tempo osservato: Sereno Sereno 21 64 1015 vento: Nord O/SO 9.3
31 Agosto 2026 06:00 tempo osservato: Sereno Sereno 22 60 1015 vento: Nord O 13
31 Agosto 2026 05:30 tempo osservato: Sereno Sereno 21 64 1015 vento: Nord O/SO 13
31 Agosto 2026 05:00 tempo osservato: Sereno Sereno 22 60 1015 vento: Nord SO 14.8
31 Agosto 2026 04:30 tempo osservato: Sereno Sereno 22 64 1016 vento: Nord O/SO 14.8
31 Agosto 2026 04:00 tempo osservato: Sereno Sereno 23 60 1016 vento: Nord O/SO 16.7
31 Agosto 2026 03:30 tempo osservato: Sereno Sereno 23 60 1016 vento: Nord O 16.7
31 Agosto 2026 03:00 tempo osservato: Sereno Sereno 23 60 1016 vento: Nord O 9.3
31 Agosto 2026 02:30 tempo osservato: Sereno Sereno 23 60 1016 vento: Nord O/SO 7.4
31 Agosto 2026 02:00 tempo osservato: Sereno Sereno 22 64 1016 vento: Nord N 5.5
31 Agosto 2026 01:30 tempo osservato: Sereno Sereno 22 64 1016 vento: Nord SO 9.3
31 Agosto 2026 01:00 tempo osservato: Sereno Sereno 23 56 1016 vento: Nord SO 11.1
31 Agosto 2026 00:30 tempo osservato: Sereno Sereno 23 60 1016 vento: Nord SO 11.1
31 Agosto 2026 00:00 tempo osservato: Sereno Sereno 23 60 1016 vento: Nord SO 11.1
30 Agosto 2026 23:30 tempo osservato: Sereno Sereno 24 57 1016 vento: Nord S/SO 7.4
30 Agosto 2026 23:00 tempo osservato: Sereno Sereno 24 64 1016 vento: Nord SO 7.4
30 Agosto 2026 22:30 tempo osservato: Sereno Sereno 25 65 1016 vento: Nord N 3.7
30 Agosto 2026 22:00 tempo osservato: Sereno Sereno 25 69 1015 vento: Nord N 5.5
30 Agosto 2026 21:30 tempo osservato: Sereno Sereno 26 65 1015 vento: Nord N 3.7
30 Agosto 2026 21:00 tempo osservato: Sereno Sereno 27 61 1015 vento: Nord N 5.5
30 Agosto 2026 20:30 tempo osservato: Sereno Sereno 28 54 1014 vento: Nord N 5.5
30 Agosto 2026 20:00 tempo osservato: Sereno Sereno 30 45 1014 vento: Nord N 5.5
30 Agosto 2026 19:30 tempo osservato: Sereno Sereno 31 43 1014 vento: Nord SO 7.4
30 Agosto 2026 19:00 tempo osservato: Sereno Sereno 31 43 1014 vento: Nord SO 9.3
30 Agosto 2026 18:30 tempo osservato: Sereno Sereno 32 38 1014 vento: Nord O/SO 9.3
30 Agosto 2026 18:00 tempo osservato: Sereno Sereno 32 38 1014 vento: Nord O/SO 14.8
30 Agosto 2026 17:30 tempo osservato: Sereno Sereno 32 35 1013 vento: Nord O/SO 16.7
30 Agosto 2026 17:00 tempo osservato: Poco Nuvoloso Poco Nuvoloso 33 36 1014 vento: Nord SO 13
30 Agosto 2026 16:30 tempo osservato: Poco Nuvoloso Poco Nuvoloso 33 46 1014 vento: Nord E/SE 14.8
30 Agosto 2026 16:00 tempo osservato: Sereno Sereno 32 46 1014 vento: Nord E/SE 18.5
30 Agosto 2026 15:30 tempo osservato: Sereno Sereno 32 46 1014 vento: Nord SE 20.3
30 Agosto 2026 15:00 tempo osservato: Sereno Sereno 32 43 1014 vento: Nord SE 18.5
30 Agosto 2026 14:30 tempo osservato: Sereno Sereno 33 29 1014 vento: Nord SE 7.4
30 Agosto 2026 13:30 tempo osservato: Sereno Sereno 32 31 1015 vento: Nord N 7.4
30 Agosto 2026 13:00 tempo osservato: Sereno Sereno 32 31 1015 vento: Nord N 9.3
30 Agosto 2026 12:30 tempo osservato: Sereno Sereno 30 37 1015 vento: Nord N 5.5
30 Agosto 2026 12:00 tempo osservato: Sereno Sereno 29 39 1016 vento: Nord N 5.5
30 Agosto 2026 11:30 tempo osservato: Sereno Sereno 28 45 1016 vento: Nord N 3.7
30 Agosto 2026 11:00 tempo osservato: Sereno Sereno 27 50 1016 vento: Nord N 3.7
30 Agosto 2026 10:30 tempo osservato: Sereno Sereno 26 50 1016 vento: Nord N 3.7
30 Agosto 2026 10:00 tempo osservato: Sereno Sereno 25 53 1016 vento: Nord N 0
30 Agosto 2026 09:30 tempo osservato: Sereno Sereno 25 53 1016 vento: Nord N 1.8
30 Agosto 2026 09:00 tempo osservato: Sereno Sereno 23 60 1016 vento: Nord N 3.7
30 Agosto 2026 08:30 tempo osservato: Sereno Sereno 21 68 1016 vento: Nord N 3.7
30 Agosto 2026 08:00 tempo osservato: Sereno Sereno 19 77 1015 vento: Nord N 1.8